Station Historical Data
Daily Summary for July 5, 2017 Units:  Metric    English   Both
« Previous Day
Next Day »
Daily Weekly Monthly Yearly Custom
  High: Low: Average:
Temperature: 31.5 °C 14.1 °C 22.9 °C
Dew Point: 19.3 °C 10.3 °C 14.3 °C
Humidity: 78% 40% 60%
Wind Speed: 11.3km/h 0km/h 2.6km/h
Wind Gust: 22.5km/h - -
Wind- - East
Pressure: 1021.9 hPa 1016.8 hPa -
Precipitation: 0 mm    
Historical Graphs
 
 
Tabular Data for July 5, 2017
Time Temperature Dew Point Pressure Wind Wind Speed Wind Gust Humidity Rainfall Rate (Hourly)
00:04 18.1 °C 10.7 °C 1020.9 hPa Calm     62% 0 mm
00:09 17.9 °C 10.8 °C 1020.5 hPa Calm   3.2 km/h 63% 0 mm
00:14 17.9 °C 11 °C 1020.9 hPa Calm   3.2 km/h 64% 0 mm
00:19 17.8 °C 11.1 °C 1020.5 hPa Calm     65% 0 mm
00:24 17.6 °C 11.2 °C 1020.5 hPa Calm     66% 0 mm
00:29 17.4 °C 11.2 °C 1020.5 hPa Calm     67% 0 mm
00:34 17.1 °C 11.2 °C 1020.5 hPa Calm     68% 0 mm
00:39 17.1 °C 11.2 °C 1020.5 hPa Calm     68% 0 mm
00:44 17 °C 11.1 °C 1020.5 hPa Calm     68% 0 mm
00:49 16.8 °C 11.1 °C 1020.5 hPa Calm     69% 0 mm
00:54 16.7 °C 11 °C 1020.5 hPa Calm     69% 0 mm
00:59 16.7 °C 11.2 °C 1020.5 hPa Calm     70% 0 mm
01:04 16.6 °C 11.1 °C 1020.5 hPa Calm     70% 0 mm
01:09 16.5 °C 11 °C 1020.5 hPa Calm     70% 0 mm
01:14 16.3 °C 11.1 °C 1020.5 hPa Calm     71% 0 mm
01:19 15.9 °C 10.9 °C 1020.5 hPa Calm     72% 0 mm
01:24 15.7 °C 10.9 °C 1020.5 hPa Calm     73% 0 mm
01:29 15.6 °C 11 °C 1020.5 hPa Calm     74% 0 mm
01:34 15.7 °C 10.9 °C 1020.5 hPa Calm     73% 0 mm
01:39 15.6 °C 10.9 °C 1020.5 hPa Calm     74% 0 mm
01:44 15.3 °C 10.9 °C 1020.5 hPa Calm     75% 0 mm
01:49 15.3 °C 10.9 °C 1020.5 hPa Calm     75% 0 mm
01:54 15.3 °C 10.9 °C 1020.5 hPa Calm     75% 0 mm
01:59 15.3 °C 10.9 °C 1020.5 hPa Calm     75% 0 mm
02:04 15.2 °C 10.8 °C 1020.5 hPa Calm     75% 0 mm
02:09 15.2 °C 10.8 °C 1020.2 hPa Calm     75% 0 mm
02:14 15.1 °C 10.9 °C 1020.2 hPa Calm     76% 0 mm
02:19 15.1 °C 10.8 °C 1020.2 hPa Calm     76% 0 mm
02:24 15.1 °C 10.8 °C 1020.2 hPa Calm     76% 0 mm
02:29 15 °C 10.8 °C 1020.2 hPa Calm     76% 0 mm
02:34 15 °C 10.8 °C 1020.2 hPa Calm     76% 0 mm
02:39 15 °C 10.8 °C 1020.2 hPa Calm     76% 0 mm
02:44 14.9 °C 10.7 °C 1020.2 hPa Calm   3.2 km/h 76% 0 mm
02:49 15 °C 10.8 °C 1020.2 hPa Calm   1.6 km/h 76% 0 mm
02:54 14.9 °C 10.7 °C 1020.2 hPa Calm   1.6 km/h 76% 0 mm
02:59 14.9 °C 10.7 °C 1019.9 hPa Calm     76% 0 mm
03:04 14.8 °C 10.7 °C 1019.9 hPa Calm     76% 0 mm
03:09 14.7 °C 10.6 °C 1020.2 hPa Calm     76% 0 mm
03:14 14.6 °C 10.6 °C 1019.9 hPa Calm     77% 0 mm
03:19 14.4 °C 10.4 °C 1019.9 hPa Calm     77% 0 mm
03:24 14.3 °C 10.6 °C 1020.2 hPa Calm     78% 0 mm
03:29 14.2 °C 10.4 °C 1020.2 hPa Calm     78% 0 mm
03:34 14.2 °C 10.4 °C 1020.2 hPa Calm     78% 0 mm
03:39 14.2 °C 10.4 °C 1020.2 hPa Calm     78% 0 mm
03:44 14.2 °C 10.4 °C 1020.2 hPa Calm     78% 0 mm
03:49 14.1 °C 10.3 °C 1020.2 hPa Calm     78% 0 mm
03:54 14.2 °C 10.4 °C 1020.2 hPa Calm     78% 0 mm
03:59 14.2 °C 10.4 °C 1020.5 hPa Calm     78% 0 mm
04:04 14.2 °C 10.4 °C 1020.5 hPa Calm     78% 0 mm
04:09 14.1 °C 10.3 °C 1020.5 hPa Calm     78% 0 mm
04:14 14.1 °C 10.3 °C 1020.5 hPa Calm     78% 0 mm
04:19 14.1 °C 10.3 °C 1020.5 hPa Calm     78% 0 mm
04:24 14.1 °C 10.3 °C 1020.5 hPa NE 3.2 km/h 4.8 km/h 78% 0 mm
04:29 14.2 °C 10.4 °C 1020.5 hPa NE 1.6 km/h 4.8 km/h 78% 0 mm
04:34 14.3 °C 10.3 °C 1020.5 hPa Calm     77% 0 mm
04:39 14.3 °C 10.3 °C 1020.5 hPa ENE 1.6 km/h 3.2 km/h 77% 0 mm
04:44 14.3 °C 10.3 °C 1020.2 hPa Calm   3.2 km/h 77% 0 mm
04:49 14.3 °C 10.3 °C 1020.5 hPa Calm   3.2 km/h 77% 0 mm
04:54 14.3 °C 10.3 °C 1020.5 hPa Calm   1.6 km/h 77% 0 mm
04:59 14.4 °C 10.4 °C 1020.5 hPa Calm   3.2 km/h 77% 0 mm
05:04 14.4 °C 10.4 °C 1020.5 hPa Calm   3.2 km/h 77% 0 mm
05:09 14.4 °C 10.4 °C 1020.9 hPa Calm     77% 0 mm
05:14 14.5 °C 10.5 °C 1020.9 hPa Calm     77% 0 mm
05:19 14.5 °C 10.5 °C 1020.9 hPa Calm     77% 0 mm
05:24 14.7 °C 10.7 °C 1020.9 hPa Calm   6.4 km/h 77% 0 mm
05:29 14.9 °C 10.7 °C 1020.9 hPa Calm     76% 0 mm
05:34 15.1 °C 10.7 °C 1020.9 hPa ENE 1.6 km/h 3.2 km/h 75% 0 mm
05:39 15.5 °C 10.9 °C 1020.9 hPa East 3.2 km/h 4.8 km/h 74% 0 mm
05:44 15.8 °C 10.9 °C 1020.9 hPa East 1.6 km/h 4.8 km/h 73% 0 mm
05:49 16.1 °C 11 °C 1020.9 hPa East 1.6 km/h 4.8 km/h 72% 0 mm
05:54 16.3 °C 11 °C 1020.9 hPa East 1.6 km/h 3.2 km/h 71% 0 mm
05:59 16.3 °C 11.1 °C 1021.2 hPa Calm   3.2 km/h 71% 0 mm
06:04 16.4 °C 10.9 °C 1021.2 hPa Calm   4.8 km/h 70% 0 mm
06:09 16.2 °C 11.2 °C 1021.2 hPa Calm   3.2 km/h 72% 0 mm
06:14 16 °C 10.9 °C 1021.2 hPa Calm     72% 0 mm
06:19 15.9 °C 11.1 °C 1021.2 hPa Calm     73% 0 mm
06:24 16.1 °C 11.1 °C 1021.2 hPa Calm   3.2 km/h 72% 0 mm
06:29 16.3 °C 11 °C 1021.2 hPa Calm   3.2 km/h 71% 0 mm
06:34 16.4 °C 10.9 °C 1021.2 hPa Calm   3.2 km/h 70% 0 mm
06:39 16.6 °C 10.9 °C 1021.2 hPa Calm   4.8 km/h 69% 0 mm
06:44 16.8 °C 10.8 °C 1021.2 hPa Calm   4.8 km/h 68% 0 mm
06:49 16.9 °C 10.9 °C 1021.2 hPa Calm     68% 0 mm
06:54 17.1 °C 10.9 °C 1021.6 hPa Calm   4.8 km/h 67% 0 mm
06:59 17.4 °C 11 °C 1021.6 hPa East 1.6 km/h 4.8 km/h 66% 0 mm
07:04 17.7 °C 11.5 °C 1021.6 hPa Calm   3.2 km/h 67% 0 mm
07:09 17.8 °C 11.3 °C 1021.6 hPa Calm     66% 0 mm
07:14 17.8 °C 11.4 °C 1021.6 hPa Calm   4.8 km/h 66% 0 mm
07:19 17.8 °C 11.4 °C 1021.6 hPa East 1.6 km/h 4.8 km/h 66% 0 mm
07:24 18.1 °C 11.6 °C 1021.6 hPa East 1.6 km/h 4.8 km/h 66% 0 mm
07:29 18.3 °C 11.2 °C 1021.9 hPa ENE 3.2 km/h 6.4 km/h 63% 0 mm
07:34 18.7 °C 11.5 °C 1021.6 hPa ENE 4.8 km/h 6.4 km/h 63% 0 mm
07:39 18.8 °C 11.3 °C 1021.6 hPa ENE 3.2 km/h 8 km/h 62% 0 mm
07:44 19 °C 11.6 °C 1021.9 hPa ENE 1.6 km/h 6.4 km/h 62% 0 mm
07:49 19.2 °C 11.4 °C 1021.9 hPa ENE 3.2 km/h 6.4 km/h 61% 0 mm
07:54 19.4 °C 11.7 °C 1021.9 hPa ENE 1.6 km/h 8 km/h 61% 0 mm
07:59 19.6 °C 11.4 °C 1021.9 hPa Calm   9.7 km/h 59% 0 mm
08:04 19.9 °C 11.7 °C 1021.9 hPa ENE 1.6 km/h 11.3 km/h 59% 0 mm
08:09 20.1 °C 11.8 °C 1021.9 hPa ENE 6.4 km/h 9.7 km/h 59% 0 mm
08:14 20.3 °C 12 °C 1021.9 hPa ENE 3.2 km/h 8 km/h 59% 0 mm
08:19 20.5 °C 11.9 °C 1021.9 hPa East 4.8 km/h 9.7 km/h 58% 0 mm
08:24 20.9 °C 12.3 °C 1021.6 hPa ENE 3.2 km/h 9.7 km/h 58% 0 mm
08:29 21.2 °C 12.1 °C 1021.6 hPa NE 9.7 km/h 11.3 km/h 56% 0 mm
08:34 21.3 °C 12.4 °C 1021.6 hPa ENE 1.6 km/h 9.7 km/h 57% 0 mm
08:39 21.4 °C 12.2 °C 1021.9 hPa ENE 8 km/h 9.7 km/h 56% 0 mm
08:44 22 °C 13.3 °C 1021.9 hPa NE 6.4 km/h 8 km/h 58% 0 mm
08:49 22.3 °C 13.1 °C 1021.6 hPa NE 3.2 km/h 9.7 km/h 56% 0 mm
08:54 22.4 °C 12.6 °C 1021.6 hPa ENE 3.2 km/h 9.7 km/h 54% 0 mm
08:59 22.4 °C 13.2 °C 1021.6 hPa East 4.8 km/h 11.3 km/h 56% 0 mm
09:04 22.7 °C 12.9 °C 1021.6 hPa SE 6.4 km/h 14.5 km/h 54% 0 mm
09:09 22.7 °C 13.5 °C 1021.6 hPa SE 3.2 km/h 11.3 km/h 56% 0 mm
09:14 23.1 °C 13.6 °C 1021.6 hPa SSE 6.4 km/h 9.7 km/h 55% 0 mm
09:19 23.2 °C 13.6 °C 1021.6 hPa ESE 4.8 km/h 9.7 km/h 55% 0 mm
09:24 23.5 °C 13.7 °C 1021.6 hPa ESE 1.6 km/h 12.9 km/h 54% 0 mm
09:29 23.9 °C 13.7 °C 1021.6 hPa SSE 3.2 km/h 11.3 km/h 53% 0 mm
09:34 24.3 °C 14.1 °C 1021.6 hPa East 1.6 km/h 8 km/h 53% 0 mm
09:39 24.4 °C 14.2 °C 1021.2 hPa SE 8 km/h 11.3 km/h 53% 0 mm
09:44 24.4 °C 14.5 °C 1021.2 hPa ESE 3.2 km/h 11.3 km/h 54% 0 mm
09:49 24.7 °C 14.8 °C 1021.2 hPa ESE 4.8 km/h 12.9 km/h 54% 0 mm
09:54 24.9 °C 14.7 °C 1021.2 hPa ESE 4.8 km/h 12.9 km/h 53% 0 mm
09:59 25.1 °C 15.2 °C 1021.2 hPa ESE 4.8 km/h 12.9 km/h 54% 0 mm
10:04 25.2 °C 14.7 °C 1021.2 hPa SE 4.8 km/h 11.3 km/h 52% 0 mm
10:09 25.7 °C 14.5 °C 1021.2 hPa SE 1.6 km/h 8 km/h 50% 0 mm
10:14 25.7 °C 14.5 °C 1021.2 hPa East 4.8 km/h 11.3 km/h 50% 0 mm
10:19 26 °C 15.1 °C 1020.9 hPa ENE 4.8 km/h 12.9 km/h 51% 0 mm
10:24 26.3 °C 15.4 °C 1020.9 hPa SSE 3.2 km/h 9.7 km/h 51% 0 mm
10:29 26.5 °C 14.9 °C 1020.9 hPa NE 6.4 km/h 12.9 km/h 49% 0 mm
10:34 26.7 °C 15.1 °C 1020.9 hPa East 4.8 km/h 12.9 km/h 49% 0 mm
10:39 26.7 °C 15.1 °C 1020.9 hPa NE 8 km/h 11.3 km/h 49% 0 mm
10:44 26.8 °C 15.6 °C 1020.9 hPa East 6.4 km/h 16.1 km/h 50% 0 mm
10:49 27 °C 14.4 °C 1020.9 hPa ENE 8 km/h 16.1 km/h 46% 0 mm
10:54 26.9 °C 14.7 °C 1020.5 hPa ENE 8 km/h 17.7 km/h 47% 0 mm
10:59 27.1 °C 14.1 °C 1020.5 hPa ENE 8 km/h 17.7 km/h 45% 0 mm
11:04 27.4 °C 15.8 °C 1020.5 hPa ENE 3.2 km/h 9.7 km/h 49% 0 mm
11:09 27.4 °C 15.4 °C 1020.5 hPa SSE 3.2 km/h 14.5 km/h 48% 0 mm
11:14 27.6 °C 15.2 °C 1020.5 hPa ESE 1.6 km/h 12.9 km/h 47% 0 mm
11:19 27.4 °C 14.8 °C 1020.5 hPa SE 4.8 km/h 12.9 km/h 46% 0 mm
11:24 27.7 °C 15.4 °C 1020.5 hPa SSE 3.2 km/h 11.3 km/h 47% 0 mm
11:29 27.9 °C 14.8 °C 1020.5 hPa SE 3.2 km/h 16.1 km/h 45% 0 mm
11:34 27.8 °C 15.8 °C 1020.5 hPa NNE 6.4 km/h 16.1 km/h 48% 0 mm
11:39 27.8 °C 14.4 °C 1020.5 hPa SE 3.2 km/h 14.5 km/h 44% 0 mm
11:44 28.3 °C 14.5 °C 1020.5 hPa ESE 4.8 km/h 14.5 km/h 43% 0 mm
11:49 27.8 °C 14.8 °C 1020.5 hPa SE 4.8 km/h 14.5 km/h 45% 0 mm
11:54 27.4 °C 15.1 °C 1020.5 hPa East 11.3 km/h 17.7 km/h 47% 0 mm
11:59 28.3 °C 15.9 °C 1020.2 hPa SSE 6.4 km/h 9.7 km/h 47% 0 mm
12:04 28.1 °C 14.7 °C 1020.2 hPa East 4.8 km/h 12.9 km/h 44% 0 mm
12:09 28.2 °C 16.1 °C 1020.2 hPa SSE 4.8 km/h 12.9 km/h 48% 0 mm
12:14 28.3 °C 15.2 °C 1019.9 hPa SE 4.8 km/h 12.9 km/h 45% 0 mm
12:19 28.5 °C 15.8 °C 1019.9 hPa SE 4.8 km/h 12.9 km/h 46% 0 mm
12:24 28.2 °C 15.8 °C 1019.9 hPa SE 4.8 km/h 12.9 km/h 47% 0 mm
12:29 28.4 °C 14.6 °C 1019.9 hPa SE 4.8 km/h 12.9 km/h 43% 0 mm
12:34 28.5 °C 16.4 °C 1019.9 hPa SE 3.2 km/h 14.5 km/h 48% 0 mm
12:39 28.8 °C 16 °C 1019.9 hPa SSE 1.6 km/h 11.3 km/h 46% 0 mm
12:44 28.7 °C 16.3 °C 1019.5 hPa SW 4.8 km/h 11.3 km/h 47% 0 mm
12:49 28.9 °C 15.8 °C 1019.5 hPa ESE 6.4 km/h 14.5 km/h 45% 0 mm
12:54 28.9 °C 16.2 °C 1019.5 hPa ESE 4.8 km/h 11.3 km/h 46% 0 mm
12:59 28.6 °C 15.5 °C 1019.5 hPa North 3.2 km/h 16.1 km/h 45% 0 mm
13:04 28.8 °C 16 °C 1019.5 hPa NE 8 km/h 9.7 km/h 46% 0 mm
13:09 29.3 °C 15.8 °C 1019.5 hPa East 4.8 km/h 11.3 km/h 44% 0 mm
13:14 29.3 °C 16.5 °C 1019.2 hPa SE 6.4 km/h 12.9 km/h 46% 0 mm
13:19 28.8 °C 14.6 °C 1019.2 hPa SE 4.8 km/h 12.9 km/h 42% 0 mm
13:24 28.8 °C 16.1 °C 1019.2 hPa ESE 4.8 km/h 11.3 km/h 46% 0 mm
13:29 28.6 °C 16.8 °C 1019.2 hPa Calm   6.4 km/h 49% 0 mm
13:34 29.3 °C 16.4 °C 1018.8 hPa NE 4.8 km/h 12.9 km/h 46% 0 mm
13:39 29.5 °C 16.7 °C 1018.8 hPa ENE 8 km/h 14.5 km/h 46% 0 mm
13:44 29.6 °C 16.4 °C 1018.8 hPa WSW 4.8 km/h 11.3 km/h 45% 0 mm
13:49 28.9 °C 16.1 °C 1018.8 hPa SSE 1.6 km/h 4.8 km/h 46% 0 mm
13:54 29.4 °C 16.6 °C 1018.8 hPa ESE 3.2 km/h 14.5 km/h 46% 0 mm
13:59 29.2 °C 16 °C 1018.8 hPa Calm   14.5 km/h 45% 0 mm
14:04 28.9 °C 15.8 °C 1018.8 hPa East 3.2 km/h 9.7 km/h 45% 0 mm
14:09 28.4 °C 16.4 °C 1018.5 hPa NE 4.8 km/h 12.9 km/h 48% 0 mm
14:14 29.4 °C 17.6 °C 1018.5 hPa ENE 4.8 km/h 12.9 km/h 49% 0 mm
14:19 29.1 °C 15.6 °C 1018.5 hPa SE 3.2 km/h 9.7 km/h 44% 0 mm
14:24 28.7 °C 15.9 °C 1018.5 hPa SE 4.8 km/h 12.9 km/h 46% 0 mm
14:29 28.8 °C 16.3 °C 1018.5 hPa SE 4.8 km/h 9.7 km/h 47% 0 mm
14:34 28.9 °C 16.8 °C 1018.5 hPa SSE 1.6 km/h 9.7 km/h 48% 0 mm
14:39 29.6 °C 16.8 °C 1018.5 hPa SSE 3.2 km/h 9.7 km/h 46% 0 mm
14:44 29.9 °C 17.4 °C 1018.5 hPa Calm   4.8 km/h 47% 0 mm
14:49 30.4 °C 17.5 °C 1018.2 hPa South 4.8 km/h 9.7 km/h 46% 0 mm
14:54 30.6 °C 16.6 °C 1018.2 hPa SW 4.8 km/h 9.7 km/h 43% 0 mm
14:59 30.7 °C 17 °C 1018.2 hPa ESE 1.6 km/h 14.5 km/h 44% 0 mm
15:04 30.6 °C 16.9 °C 1018.2 hPa Calm   9.7 km/h 44% 0 mm
15:09 30.3 °C 16.3 °C 1018.2 hPa South 4.8 km/h 11.3 km/h 43% 0 mm
15:14 29.6 °C 16.4 °C 1018.2 hPa West 3.2 km/h 11.3 km/h 45% 0 mm
15:19 29.3 °C 16.8 °C 1018.2 hPa ENE 8 km/h 14.5 km/h 47% 0 mm
15:24 30.1 °C 17.2 °C 1018.2 hPa South 11.3 km/h 12.9 km/h 46% 0 mm
15:29 29.9 °C 17.4 °C 1017.8 hPa SE 8 km/h 9.7 km/h 47% 0 mm
15:34 30.2 °C 15.9 °C 1017.8 hPa SW 1.6 km/h 11.3 km/h 42% 0 mm
15:39 29.9 °C 16.7 °C 1018.2 hPa ESE 3.2 km/h 11.3 km/h 45% 0 mm
15:44 30.7 °C 17.1 °C 1017.8 hPa SE 3.2 km/h 9.7 km/h 44% 0 mm
15:49 31.1 °C 18.1 °C 1017.8 hPa SE 4.8 km/h 9.7 km/h 46% 0 mm
15:54 30.8 °C 17.8 °C 1017.8 hPa SE 3.2 km/h 9.7 km/h 46% 0 mm
15:59 30.6 °C 17.3 °C 1017.5 hPa SE 3.2 km/h 6.4 km/h 45% 0 mm
16:04 30.4 °C 16.4 °C 1017.5 hPa Calm   8 km/h 43% 0 mm
16:09 29.8 °C 16.6 °C 1017.5 hPa SW 6.4 km/h 6.4 km/h 45% 0 mm
16:14 30.2 °C 16.6 °C 1017.5 hPa WNW 1.6 km/h 8 km/h 44% 0 mm
16:19 31.2 °C 17.4 °C 1017.5 hPa Calm   4.8 km/h 44% 0 mm
16:24 31.4 °C 17.3 °C 1017.5 hPa East 8 km/h 8 km/h 43% 0 mm
16:29 31.5 °C 16.7 °C 1017.5 hPa South 3.2 km/h 8 km/h 41% 0 mm
16:34 31.5 °C 17.1 °C 1017.2 hPa ESE 4.8 km/h 8 km/h 42% 0 mm
16:39 31.1 °C 15.9 °C 1017.2 hPa South 3.2 km/h 8 km/h 40% 0 mm
16:44 30.4 °C 16.4 °C 1017.2 hPa SSW 3.2 km/h 8 km/h 43% 0 mm
16:49 30 °C 15.7 °C 1017.2 hPa South 3.2 km/h 6.4 km/h 42% 0 mm
16:54 29.7 °C 16.4 °C 1017.2 hPa SSE 1.6 km/h 6.4 km/h 45% 0 mm
16:59 29.9 °C 17.1 °C 1017.2 hPa SE 1.6 km/h 4.8 km/h 46% 0 mm
17:04 30.9 °C 17.9 °C 1017.2 hPa ENE 1.6 km/h 4.8 km/h 46% 0 mm
17:09 30.8 °C 18.2 °C 1017.2 hPa ENE 3.2 km/h 8 km/h 47% 0 mm
17:14 30.9 °C 17.9 °C 1016.8 hPa NE 8 km/h 9.7 km/h 46% 0 mm
17:19 30.4 °C 17.5 °C 1016.8 hPa NNE 1.6 km/h 8 km/h 46% 0 mm
17:24 30.6 °C 17.7 °C 1016.8 hPa NE 4.8 km/h 11.3 km/h 46% 0 mm
17:29 30.3 °C 17.4 °C 1016.8 hPa NNW 9.7 km/h 11.3 km/h 46% 0 mm
17:34 29.6 °C 16.8 °C 1016.8 hPa Calm   9.7 km/h 46% 0 mm
17:39 29.4 °C 17.3 °C 1016.8 hPa North 3.2 km/h 9.7 km/h 48% 0 mm
17:44 29.6 °C 17.1 °C 1016.8 hPa NE 3.2 km/h 12.9 km/h 47% 0 mm
17:49 29.6 °C 18.7 °C 1016.8 hPa NNE 4.8 km/h 12.9 km/h 52% 0 mm
17:54 28.9 °C 19.3 °C 1016.8 hPa North 3.2 km/h 9.7 km/h 56% 0 mm
17:59 29.3 °C 19.1 °C 1016.8 hPa NNE 8 km/h 8 km/h 54% 0 mm
18:04 29.1 °C 19.1 °C 1016.8 hPa NNE 4.8 km/h 12.9 km/h 55% 0 mm
18:09 28.7 °C 18.7 °C 1016.8 hPa NNE 4.8 km/h 12.9 km/h 55% 0 mm
18:14 28.8 °C 18.8 °C 1016.8 hPa NNE 4.8 km/h 11.3 km/h 55% 0 mm
18:19 28.7 °C 19.1 °C 1016.8 hPa NNE 4.8 km/h 12.9 km/h 56% 0 mm
18:24 28.4 °C 18.2 °C 1017.2 hPa ENE 4.8 km/h 16.1 km/h 54% 0 mm
18:29 28 °C 18.4 °C 1016.8 hPa NNE 4.8 km/h 19.3 km/h 56% 0 mm
18:34 27.7 °C 18.1 °C 1016.8 hPa NNE 6.4 km/h 19.3 km/h 56% 0 mm
18:39 27.6 °C 18.3 °C 1016.8 hPa North 4.8 km/h 12.9 km/h 57% 0 mm
18:44 27.6 °C 18.3 °C 1017.2 hPa NNE 4.8 km/h 20.9 km/h 57% 0 mm
18:49 27.3 °C 18.1 °C 1017.2 hPa North 4.8 km/h 12.9 km/h 57% 0 mm
18:54 27.2 °C 17.9 °C 1017.2 hPa North 4.8 km/h 8 km/h 57% 0 mm
18:59 27.2 °C 18.2 °C 1017.2 hPa NE 4.8 km/h 9.7 km/h 58% 0 mm
19:04 27.2 °C 17.6 °C 1017.2 hPa NE 1.6 km/h 12.9 km/h 56% 0 mm
19:09 27 °C 17.5 °C 1017.2 hPa NE 4.8 km/h 12.9 km/h 56% 0 mm
19:14 26.8 °C 17.3 °C 1016.8 hPa NE 6.4 km/h 22.5 km/h 56% 0 mm
19:19 26.6 °C 17.1 °C 1016.8 hPa NE 6.4 km/h 17.7 km/h 56% 0 mm
19:24 26.6 °C 17.1 °C 1017.2 hPa NE 3.2 km/h 16.1 km/h 56% 0 mm
19:29 26.5 °C 17.6 °C 1017.2 hPa NE 4.8 km/h 8 km/h 58% 0 mm
19:34 26.4 °C 17.2 °C 1016.8 hPa NE 3.2 km/h 12.9 km/h 57% 0 mm
19:39 26.3 °C 17.6 °C 1016.8 hPa NE 4.8 km/h 12.9 km/h 59% 0 mm
19:44 26.2 °C 17.3 °C 1016.8 hPa NE 3.2 km/h 12.9 km/h 58% 0 mm
19:49 26.1 °C 17.2 °C 1017.2 hPa NE 3.2 km/h 12.9 km/h 58% 0 mm
19:54 25.8 °C 17.2 °C 1017.2 hPa NNE 3.2 km/h 9.7 km/h 59% 0 mm
19:59 25.7 °C 17.1 °C 1017.2 hPa NNE 4.8 km/h 8 km/h 59% 0 mm
20:04 25.5 °C 17.2 °C 1017.2 hPa NNE 3.2 km/h 8 km/h 60% 0 mm
20:09 25.4 °C 17.1 °C 1017.2 hPa NE 6.4 km/h 11.3 km/h 60% 0 mm
20:14 25.2 °C 16.8 °C 1016.8 hPa NNE 1.6 km/h 6.4 km/h 60% 0 mm
20:19 25.1 °C 17.1 °C 1016.8 hPa NNE 3.2 km/h 6.4 km/h 61% 0 mm
20:24 25 °C 17.2 °C 1016.8 hPa NE 3.2 km/h 8 km/h 62% 0 mm
20:29 24.8 °C 17.1 °C 1016.8 hPa NE 3.2 km/h 4.8 km/h 62% 0 mm
20:34 24.7 °C 16.9 °C 1016.8 hPa NNE 3.2 km/h 9.7 km/h 62% 0 mm
20:39 24.6 °C 16.8 °C 1016.8 hPa NE 3.2 km/h 12.9 km/h 62% 0 mm
20:44 24.4 °C 16.7 °C 1016.8 hPa NE 3.2 km/h 12.9 km/h 62% 0 mm
20:49 24.2 °C 16.5 °C 1016.8 hPa NE 3.2 km/h 8 km/h 62% 0 mm
20:54 24.1 °C 16.1 °C 1017.2 hPa NE 3.2 km/h 8 km/h 61% 0 mm
20:59 23.9 °C 16.2 °C 1017.2 hPa NE 3.2 km/h 8 km/h 62% 0 mm
21:04 23.8 °C 16.1 °C 1017.2 hPa Calm   3.2 km/h 62% 0 mm
21:09 23.8 °C 16.1 °C 1017.2 hPa ENE 1.6 km/h 9.7 km/h 62% 0 mm
21:14 23.7 °C 16 °C 1017.2 hPa Calm   3.2 km/h 62% 0 mm
21:19 23.6 °C 15.9 °C 1017.2 hPa NE 3.2 km/h 12.9 km/h 62% 0 mm
21:24 23.6 °C 15.8 °C 1017.2 hPa Calm   4.8 km/h 62% 0 mm
21:29 23.3 °C 15.9 °C 1017.2 hPa ENE 1.6 km/h 3.2 km/h 63% 0 mm
21:34 23.2 °C 15.8 °C 1017.2 hPa Calm   3.2 km/h 63% 0 mm
21:39 23.1 °C 15.9 °C 1017.2 hPa Calm   3.2 km/h 64% 0 mm
21:44 22.9 °C 16 °C 1017.2 hPa Calm     65% 0 mm
21:49 22.7 °C 16.1 °C 1017.2 hPa Calm     66% 0 mm
21:54 22.7 °C 15.7 °C 1017.2 hPa Calm     65% 0 mm
21:59 22.7 °C 15.7 °C 1017.2 hPa Calm     65% 0 mm
22:04 22.7 °C 15.8 °C 1017.2 hPa Calm     65% 0 mm
22:09 22.7 °C 15.7 °C 1017.2 hPa Calm     65% 0 mm
22:14 22.6 °C 15.7 °C 1017.5 hPa Calm   6.4 km/h 65% 0 mm
22:19 22.4 °C 15.8 °C 1017.5 hPa Calm   4.8 km/h 66% 0 mm
22:24 22.3 °C 15.6 °C 1017.5 hPa Calm     66% 0 mm
22:29 22.3 °C 15.9 °C 1017.5 hPa Calm     67% 0 mm
22:34 22.5 °C 15.8 °C 1017.2 hPa Calm   3.2 km/h 66% 0 mm
22:39 22.7 °C 15.7 °C 1017.2 hPa Calm   3.2 km/h 65% 0 mm
22:44 22.7 °C 16.1 °C 1017.5 hPa Calm   3.2 km/h 66% 0 mm
22:49 22.6 °C 15.9 °C 1017.5 hPa Calm     66% 0 mm
22:54 22.6 °C 15.9 °C 1017.2 hPa Calm     66% 0 mm
22:59 22.4 °C 15.8 °C 1017.2 hPa Calm     66% 0 mm
23:04 22.3 °C 15.7 °C 1017.2 hPa Calm     66% 0 mm
23:09 22.3 °C 15.7 °C 1017.2 hPa Calm     66% 0 mm
23:14 22.2 °C 15.7 °C 1017.2 hPa Calm     67% 0 mm
23:19 22 °C 15.6 °C 1017.2 hPa Calm     67% 0 mm
23:24 21.8 °C 15.7 °C 1017.2 hPa Calm     68% 0 mm
23:29 21.6 °C 15.6 °C 1017.2 hPa Calm     69% 0 mm
23:34 21.3 °C 15.6 °C 1017.2 hPa Calm     70% 0 mm
23:39 21.3 °C 15.6 °C 1017.2 hPa Calm     70% 0 mm
23:44 21.2 °C 15.6 °C 1017.2 hPa Calm     70% 0 mm
23:49 21 °C 15.6 °C 1017.2 hPa Calm     71% 0 mm
23:54 20.9 °C 15.7 °C 1017.5 hPa Calm     72% 0 mm
23:59 20.9 °C 15.7 °C 1017.2 hPa Calm     72% 0 mm
Buffalo, New York, USA
Compliments of Weather Underground - 2.5 mb